Location: Vancouver
(49.2500°N, 123.1330°W)
Time: 20:05:05
(UTC-07:00)

ISS - All Passes

Search period start: 29 May 2016 00:00
Search period end: 08 June 2016 00:00
Orbit: 402 x 404 km, 51.6° (Epoch: 29 May)

Date Brightness Start Highest point End Pass type
(mag) Time Alt. Az. Time Alt. Az. Time Alt. Az.
29 May - 00:39:58 10° W 00:43:11 53° N 00:46:24 10° ENE visible
29 May - 02:16:32 10° WNW 02:19:48 84° NNE 02:23:05 10° ESE visible
29 May - 03:53:16 10° W 03:55:59 24° SW 03:58:42 10° SSE visible
29 May - 20:36:59 10° SSE 20:38:01 11° SE 20:39:02 10° ESE daylight
29 May - 22:10:40 10° SW 22:13:52 53° SSE 22:17:04 10° ENE visible
29 May - 23:47:06 10° W 23:50:20 58° N 23:53:34 10° ENE visible
30 May - 01:23:45 10° WNW 01:27:01 66° NNE 01:30:16 10° E visible
30 May - 03:00:18 10° W 03:03:22 38° SSW 03:06:26 10° SE visible
30 May - 21:18:12 10° SSW 21:21:12 34° SSE 21:24:12 10° E daylight
30 May - 22:54:15 10° W 22:57:31 70° NNW 23:00:47 10° ENE visible
31 May - 00:30:57 10° WNW 00:34:11 56° N 00:37:25 10° E visible
31 May - 02:07:27 10° WNW 02:10:42 61° SSW 02:13:54 10° SE visible
31 May - 03:45:01 10° WSW 03:46:37 13° SW 03:48:12 10° SSW visible
31 May - 20:26:02 10° SSW 20:28:35 21° SE 20:31:09 10° E daylight
31 May - 22:01:27 10° WSW 22:04:43 88° SSE 22:08:00 10° ENE visible
31 May - 23:38:06 10° W 23:41:20 53° N 23:44:33 10° E visible
01 Jun - 01:14:39 10° WNW 01:17:57 88° S 01:21:13 10° ESE visible
01 Jun - 02:51:31 10° W 02:54:04 21° SW 02:56:37 10° SSE visible
01 Jun - 19:34:26 10° SSE 19:36:03 13° SE 19:37:39 10° ESE daylight
01 Jun - 21:08:44 10° SW 21:11:58 61° SSE 21:15:12 10° ENE daylight
01 Jun - 22:45:15 10° W 22:48:29 56° N 22:51:43 10° ENE visible
02 Jun - 00:21:52 10° WNW 00:25:09 70° NNE 00:28:25 10° E visible
02 Jun - 01:58:28 10° W 02:01:28 34° SSW 02:04:27 10° SSE visible
02 Jun - 20:16:12 10° SW 20:19:16 39° SSE 20:22:21 10° E daylight
02 Jun - 21:52:23 10° W 21:55:38 66° NNW 21:58:53 10° ENE visible
02 Jun - 23:29:04 10° WNW 23:32:19 58° N 23:35:33 10° E visible
03 Jun - 01:05:35 10° WNW 01:08:47 53° SSW 01:11:58 10° SE visible
03 Jun - 02:43:38 10° WSW 02:44:38 11° SW 02:45:38 10° SSW visible
03 Jun - 19:23:55 10° SSW 19:26:38 24° SE 19:29:22 10° E daylight
03 Jun - 20:59:33 10° WSW 21:02:49 84° NNW 21:06:06 10° ENE daylight
03 Jun - 22:36:14 10° WNW 22:39:27 53° N 22:42:40 10° E visible
04 Jun - 00:12:46 10° WNW 00:16:02 80° SSW 00:19:18 10° ESE visible
04 Jun - 01:49:45 10° W 01:52:06 18° SW 01:54:27 10° S visible
04 Jun - 18:32:04 10° S 18:34:04 15° SE 18:36:03 10° E daylight
04 Jun - 20:06:47 10° WSW 20:10:02 69° SSE 20:13:18 10° ENE daylight
04 Jun - 21:43:21 10° W 21:46:35 54° N 21:49:48 10° ENE daylight
04 Jun - 23:19:58 10° WNW 23:23:15 75° NNE 23:26:31 10° ESE visible
05 Jun - 00:56:36 10° W 00:59:30 29° SW 01:02:23 10° SSE visible
05 Jun - 19:14:11 10° SW 19:17:18 44° SSE 19:20:27 10° ENE daylight
05 Jun - 20:50:28 10° W 20:53:43 62° N 20:56:59 10° ENE daylight
05 Jun - 22:27:09 10° WNW 22:30:24 61° N 22:33:38 10° E visible
06 Jun - 00:03:40 10° WNW 00:06:50 47° SSW 00:09:58 10° SE visible
06 Jun - 18:21:48 10° SSW 18:24:38 28° SE 18:27:30 10° E daylight
06 Jun - 19:57:36 10° WSW 20:00:53 78° NNW 20:04:09 10° ENE daylight
06 Jun - 21:34:18 10° WNW 21:37:32 54° N 21:40:46 10° E daylight
06 Jun - 23:10:49 10° WNW 23:14:05 72° SSW 23:17:21 10° ESE visible
07 Jun - 00:48:00 10° W 00:50:06 16° SW 00:52:11 10° S visible
07 Jun - 17:29:46 10° S 17:32:02 18° SE 17:34:18 10° E daylight
07 Jun - 19:04:48 10° WSW 19:08:04 77° SSE 19:11:21 10° ENE daylight
07 Jun - 20:41:26 10° W 20:44:39 54° N 20:47:52 10° ENE daylight
07 Jun - 22:18:01 10° WNW 22:21:17 82° NNE 22:24:34 10° ESE visible
